SCP
0 0 0 0 0 0 0 0 0 0 0 0 0 0 0 0 0 0 0 0 0 0 0 0 0 0 0 0 0 0 0 0 0 0 0 0 0 0 0 0 0 0 0 0
0 0 0 0 0 0 0 0 0 0 0 0 0 0 0 0 0 0 0 0 0 0 0 0 0 0 0 0 0 0 0 0 0 0 0 0 0 0 0 0 0 0 0 0
0 0 0 0 0 0 0 0 0 0 0 0 0 0 0 0 0 0 0 0 0 0 0 0 0 0 0 0 0 0 0 0 0 0 0 0 0 0 0 0 0 0 0 0
0 0 0 0 0 0 0 0 0 0 0 0 0 0 0 0 0 0 0 0 0 0 0 0 0 0 0 0 0 0 0 0 0 0 0 0 0 0 0 0 0 0 0 0
0 0 0 0 0 0 0 0 0 0 0 0 0 0 0 0 0 0 0 0 0 0 0 0 0 0 0 0 0 0 0 0 0 0 0 0 0 0 0 0 0 0 0 0
0 0 0 0 0 0 0 0 0 0 0 0 0 0 0 0 0 0 0 0 0 0 0 0 0 0 0 0 0 0 0 0 0 0 0 0 0 0 0 0 0 0 0 0
0 0 0 0 0 0 0 0 0 0 0 0 0 0 0 0 0 0 0 0 0 0 0 0 0 0 0 0 0 0 0 0 0 0 0 0 0 0 0 0 0 0 0 0
0 0 0 0 0 0 0 0 0 0 0 0 0 0 0 0 0 0 0 0 0 0 0 0 0 0 0 0 0 0 0 0 0 0 0 0 0 0 0 0 0 0 0 0
0 0 0 0 0 0 0 0 0 0 0 0 0 0 0 0 0 0 0 0 0 0 0 0 0 0 0 0 0 0 0 0 0 0 0 0 0 0 0 0 0 0 0 0
0 0 0 0 0 0 0 0 0 0 0 0 0 0 0 0 0 0 0 0 0 0 0 0 0 0 0 0 0 0 0 0 0 0 0 0 0 0 0 0 0 0 0 0
0 0 0 0 0 0 0 0 0 0 0 0 0 0 0 0 0 0 0 0 0 0 0 0 0 0 0 0 0 0 0 0 0 0 0 0 0 0 0 0 0 0 0 0
0 0 0 0 0 0 0 0 0 0 0 0 0 0 0 0 0 0 0 0 0 0 0 0 0 0 0 0 0 0 0 0 0 0 0 0 0 0 0 0 0 0 0 0
0 0 0 0 0 0 0 0 0 0 0 0 0 0 0 0 0 0 0 0 0 0 0 0 0 0 0 0 0 0 0 0 0 0 0 0 0 0 0 0 0 0 0 0
0 0 0 0 0 0 0 0 0 0 0 0 0 0 0 0 0 0 0 0 0 0 0 0 0 0 0 0 0 0 0 0 0 0 0 0 0 0 0 0 0 0 0 0
0 0 0 0 0 0 0 0 0 0 0 0 0 0 0 0 0 0 0 0 0 0 0 0 0 0 0 0 0 0 0 0 0 0 0 0 0 0 0 0 0 0 0 0
0 0 0 0 0 0 0 0 0 0 0 0 0 0 0 0 0 0 0 0 0 0 0 0 0 0 0 0 0 0 0 0 0 0 0 0 0 0 0 0 0 0 0 0
0 0 0 0 0 0 0 0 0 0 0 0 0 0 0 0 0 0 0 0 0 0 0 0 0 0 0 0 0 0 0 0 0 0 0 0 0 0 0 0 0 0 0 0
0 0 0 0 0 0 0 0 0 0 0 0 0 0 0 0 0 0 0 0 0 0 0 0 0 0 0 0 0 0 0 0 0 0 0 0 0 0 0 0 0 0 0 0
0 0 0 0 0 0 0 0 0 0 0 0 0 0 0 0 0 0 0 0 0 0 0 0 0 0 0 0 0 0 0 0 0 0 0 0 0 0 0 0 0 0 0 0
0 0 0 0 0 0 0 0 0 0 0 0 0 0 0 0 0 0 0 0 0 0 0 0 0 0 0 0 0 0 0 0 0 0 0 0 0 0 0 0 0 0 0 0
0 0 0 0 0 0 0 0 0 0 0 0 0 0 0 0 0 0 0 0 0 0 0 0 0 0 0 0 0 0 0 0 0 0 0 0 0 0 0 0 0 0 0 0
0 0 0 0 0 0 0 0 0 0 0 0 0 0 0 0 0 0 0 0 0 0 0 0 0 0 0 0 0 0 0 0 0 0 0 0 0 0 0 0 0 0 0 0
0 0 0 0 0 0 0 0 0 0 0 0 0 0 0 0 0 0 0 0 0 0 0 0 0 0 0 0 0 0 0 0 0 0 0 0 0 0 0 0 0 0 0 0
0 0 0 0 0 0 0 0 0 0 0 0 0 0 0 0 0 0 0 0 0 0 0 0 0 0 0 0 0 0 0 0 0 0 0 0 0 0 0 0 0 0 0 0
0 0 0 0 0 0 0 0 0 0 0 0 0 0 0 0 0 0 0 0 0 0 0 0 0 0 0 0 0 0 0 0 0 0 0 0 0 0 0 0 0 0 0 0
0 0 0 0 0 0 0 0 0 0 0 0 0 0 0 0 0 0 0 0 0 0 0 0 0 0 0 0 0 0 0 0 0 0 0 0 0 0 0 0 0 0 0 0
Wind_Speed_500mb
17 8 28 16 15 10 11 11 13 1 8 8 16 12 16 25 23 26 35 41 42 38 39 45 43 46 43 43 42 40 44 46 44 40 38 36 35 32 30 27 24 25 27 27
7 26 14 16 16 17 8 13 8 4 4 5 10 16 11 22 21 33 38 38 41 43 42 43 47 49 50 51 48 46 45 47 46 39 32 36 33 31 28 27 27 27 29 31
16 9 19 23 13 20 12 13 12 14 7 4 9 11 11 11 11 22 24 32 37 39 40 39 42 48 55 59 59 57 52 48 44 34 28 31 35 31 25 21 20 21 23 25
14 27 35 11 20 18 16 11 13 23 12 10 8 9 13 13 13 13 27 30 28 32 32 32 33 36 42 48 56 64 60 57 42 36 33 29 26 25 21 21 19 15 16 15
11 20 17 11 13 15 12 15 17 9 9 10 6 5 12 16 10 17 26 28 33 35 38 34 28 25 28 33 41 53 60 58 48 40 32 25 19 20 21 16 12 11 13 15
5 3 9 12 4 13 16 15 15 10 7 2 10 13 9 12 25 11 31 38 40 38 31 27 24 23 23 23 29 43 51 57 49 48 31 28 22 21 22 20 17 17 15 15
6 4 3 6 12 9 15 12 5 3 1 11 3 8 15 14 14 22 34 49 44 36 31 29 28 28 27 28 29 34 42 51 54 50 46 35 26 21 22 16 16 15 10 7
11 8 13 7 12 15 11 15 11 13 8 7 4 12 10 5 10 37 64 56 45 38 39 36 31 32 33 32 32 35 39 44 42 43 42 35 28 29 28 24 19 16 13 10
14 7 3 2 3 19 11 8 9 14 6 7 8 8 9 6 10 34 52 56 49 48 44 40 39 38 39 40 40 41 46 49 46 46 44 40 35 31 27 24 18 12 11 10
12 10 4 1 4 3 12 16 5 5 10 7 8 7 10 15 25 19 32 52 58 52 46 46 45 46 46 47 49 48 49 52 51 47 43 40 34 28 23 19 14 10 9 11
6 9 3 5 10 18 6 6 4 10 9 11 4 12 13 34 33 36 43 64 63 57 54 52 51 49 50 51 50 50 49 49 47 43 39 35 31 24 19 12 10 9 13 17
6 10 7 11 3 4 1 13 11 10 11 2 6 11 5 11 35 50 51 64 65 60 59 56 56 55 54 53 51 49 48 47 44 40 36 30 25 20 13 9 8 11 17 24
14 4 7 7 5 3 9 8 9 10 7 13 11 11 2 3 27 47 56 67 70 66 63 61 62 61 57 55 54 51 49 46 42 37 31 26 20 14 8 5 10 18 25 31
18 9 14 16 13 13 15 16 13 12 7 9 13 8 9 13 23 38 53 72 76 72 71 68 65 62 60 60 59 55 51 44 40 34 27 21 15 8 3 10 18 25 28 30
11 13 11 3 7 9 16 17 18 15 37 18 33 18 12 21 26 58 68 75 81 81 78 75 72 69 68 65 61 57 51 45 39 32 25 17 9 3 9 15 20 24 28 32
3 3 5 3 5 4 6 17 22 39 25 18 4 13 15 39 40 47 66 74 77 87 87 83 78 77 76 71 67 60 53 46 38 30 21 13 4 5 13 18 21 25 31 36
19 11 7 7 1 7 5 24 24 21 15 37 28 44 13 10 35 55 63 83 95 97 96 93 90 87 81 75 69 63 55 47 38 28 19 10 5 10 16 20 25 29 35 41
18 27 5 19 7 7 18 17 21 30 24 36 23 10 23 27 57 77 88 94 92 88 93 97 96 91 82 76 70 63 55 46 36 27 18 10 8 13 17 21 28 35 39 43
5 11 7 12 13 12 17 17 20 20 40 18 36 35 22 29 30 48 84 92 92 94 97 101 100 95 86 80 73 65 56 45 36 26 17 11 10 12 16 23 30 35 39 43
8 6 7 6 11 21 14 15 19 16 35 28 46 23 23 33 13 25 80 95 92 87 88 94 101 95 86 81 74 66 56 45 34 24 16 11 11 14 19 24 29 34 39 42
8 4 22 9 8 18 12 11 35 18 22 33 58 61 56 24 55 59 40 76 86 85 86 88 91 93 88 82 74 64 54 44 32 22 16 12 13 16 20 23 28 33 38 42
22 20 11 6 4 31 18 10 31 12 5 8 16 33 44 65 47 39 33 56 80 87 85 84 88 91 87 82 74 64 54 42 31 21 18 16 16 17 20 22 26 32 37 41
12 12 15 22 17 3 22 4 14 7 4 2 7 7 17 40 43 35 40 60 74 82 84 84 86 91 90 81 72 62 50 39 28 26 23 20 18 18 21 25 28 32 37 43
5 1 6 7 3 6 17 7 13 5 3 6 9 10 12 19 31 37 45 60 72 80 84 85 86 93 91 80 68 53 44 36 33 31 26 21 19 20 23 27 30 33 36 40
2 5 7 6 7 8 11 24 21 5 12 16 16 16 19 20 29 40 50 63 73 77 81 82 89 93 87 78 65 54 44 39 35 33 27 23 21 22 25 28 31 33 35 40
11 9 5 4 2 10 10 19 14 13 24 23 22 21 21 26 30 38 51 59 67 75 79 83 86 85 77 64 57 49 42 40 38 33 29 27 25 25 27 31 31 33 34 36
Wind_Direction_500mb
203 165 194 181 148 193 148 200 169 308 183 133 192 185 211 197 201 182 181 170 178 192 191 197 198 201 201 206 216 220 219 224 234 239 244 222 225 230 236 242 250 262 271 274
203 216 179 166 186 220 173 195 165 5 43 126 178 229 220 195 209 187 174 185 186 180 182 195 204 205 203 207 205 208 224 231 237 242 248 231 228 233 242 249 254 258 267 274
202 215 180 189 186 204 187 184 187 161 144 1 109 312 218 208 181 180 168 166 177 188 193 206 213 214 214 215 215 210 213 223 236 241 233 225 224 234 242 248 253 258 265 268
220 233 186 175 209 168 214 174 146 136 122 199 148 252 246 198 187 197 191 186 180 193 202 210 217 217 218 217 216 215 214 222 216 218 223 226 220 229 236 243 249 254 263 272
203 173 185 178 189 165 193 134 144 132 121 113 188 110 255 139 195 218 206 201 189 193 203 208 216 221 222 218 215 212 210 215 213 203 210 217 210 213 217 219 222 220 228 244
176 182 147 186 89 151 137 91 55 63 77 282 216 167 257 189 203 165 190 182 177 181 194 201 194 190 192 194 193 199 202 201 208 202 190 194 190 169 185 188 199 206 220 231
106 36 300 172 87 5 116 106 61 43 307 218 0 184 242 223 215 182 174 169 166 184 183 180 174 168 163 168 169 174 187 192 201 207 205 210 206 212 197 171 138 136 139 122
148 195 188 195 169 171 175 152 151 170 188 223 333 224 247 292 260 192 178 172 175 179 176 170 167 163 156 154 156 157 161 169 182 192 198 200 179 152 142 133 128 125 113 92
158 164 144 71 44 153 217 181 165 101 33 74 213 282 308 72 106 144 160 167 170 170 174 169 164 160 154 150 146 149 148 146 149 151 152 149 145 141 134 128 123 113 88 60
182 116 19 312 110 8 172 156 102 15 134 237 274 251 224 197 191 169 165 168 168 172 172 167 164 160 154 152 147 147 144 142 142 144 146 143 139 136 128 123 117 92 54 26
105 98 183 135 205 173 150 187 160 127 145 164 169 254 219 197 183 180 173 174 175 173 174 169 166 163 160 158 155 153 150 147 145 147 144 143 139 136 127 114 87 46 17 355
108 107 141 202 230 268 120 203 157 169 211 152 160 262 194 199 183 175 174 177 180 182 178 174 171 171 168 163 160 159 156 155 153 151 149 146 140 130 122 94 43 9 345 340
172 119 88 17 354 332 213 205 174 113 85 197 151 253 309 165 156 173 169 179 182 182 181 180 178 178 173 168 167 168 162 160 155 154 155 148 142 129 107 36 356 345 341 337
134 140 164 185 194 144 192 194 187 143 129 179 224 209 221 177 171 171 176 181 184 186 188 186 185 182 179 178 175 172 166 165 161 160 158 153 147 140 54 355 344 336 331 330
127 192 173 75 130 150 193 182 168 193 219 189 234 199 216 199 186 188 184 181 184 189 193 193 190 187 185 181 177 176 175 171 170 169 165 163 156 70 357 342 330 328 329 329
74 175 117 115 10 130 133 197 199 211 220 245 213 265 199 209 193 176 183 179 184 193 199 199 196 193 190 187 183 180 179 176 174 174 173 169 150 336 326 326 326 328 330 330
154 146 103 251 9 90 336 214 193 222 218 217 227 239 151 179 184 185 184 189 196 200 201 203 202 199 195 192 189 185 181 179 178 180 181 185 248 302 320 329 330 328 326 326
179 193 160 232 26 227 243 158 187 204 215 224 244 263 183 203 210 205 210 206 203 204 207 208 206 202 199 194 190 186 183 182 182 187 196 222 279 311 323 327 325 325 328 330
41 134 147 161 191 285 261 221 184 171 247 194 227 233 208 221 211 217 216 218 219 221 219 215 211 206 199 194 191 188 184 186 189 196 212 239 277 305 317 319 323 328 330 331
58 44 127 145 168 213 282 175 169 91 258 206 218 222 187 161 197 234 221 221 219 219 216 214 212 204 199 194 191 189 189 189 195 206 225 252 276 296 315 324 329 328 329 330
132 111 201 167 220 276 223 144 143 156 250 189 209 216 199 194 221 246 234 223 223 219 214 213 209 203 198 193 190 189 191 195 202 213 227 249 278 303 313 318 324 328 329 331
177 172 191 136 181 256 151 104 176 213 210 185 222 236 216 218 229 232 218 215 215 213 209 211 203 200 195 193 191 191 196 200 207 217 230 245 263 282 296 310 317 322 325 327
201 195 193 192 225 78 192 46 190 174 155 230 247 235 224 218 223 218 209 202 206 209 205 202 201 195 192 191 192 195 199 203 208 218 220 231 255 278 292 298 308 314 320 324
289 285 145 81 311 296 218 202 213 160 116 345 310 281 241 239 226 221 207 201 199 201 201 199 197 192 189 190 191 196 204 209 214 214 218 231 252 273 285 293 303 311 316 322
199 119 149 284 254 254 234 246 241 294 267 288 301 274 251 239 231 223 210 205 204 202 198 197 195 193 192 191 194 197 206 212 214 217 222 234 251 267 280 291 302 309 318 324
188 169 175 215 198 88 344 6 6 302 293 289 276 265 255 247 252 227 215 211 207 203 200 197 195 194 193 195 198 205 215 217 217 222 229 238 253 269 283 290 298 307 312 315
Wind_Speed_850mb
17 8 28 16 15 10 11 11 13 1 8 8 16 12 16 25 23 26 35 41 42 38 39 45 43 46 43 43 42 40 44 46 44 40 38 36 35 32 30 27 24 25 27 27
7 26 14 16 16 17 8 13 8 4 4 5 10 16 11 22 21 33 38 38 41 43 42 43 47 49 50 51 48 46 45 47 46 39 32 36 33 31 28 27 27 27 29 31
16 9 19 23 13 20 12 13 12 14 7 4 9 11 11 11 11 22 24 32 37 39 40 39 42 48 55 59 59 57 52 48 44 34 28 31 35 31 25 21 20 21 23 25
14 27 35 11 20 18 16 11 13 23 12 10 8 9 13 13 13 13 27 30 28 32 32 32 33 36 42 48 56 64 60 57 42 36 33 29 26 25 21 21 19 15 16 15
11 20 17 11 13 15 12 15 17 9 9 10 6 5 12 16 10 17 26 28 33 35 38 34 28 25 28 33 41 53 60 58 48 40 32 25 19 20 21 16 12 11 13 15
5 3 9 12 4 13 16 15 15 10 7 2 10 13 9 12 25 11 31 38 40 38 31 27 24 23 23 23 29 43 51 57 49 48 31 28 22 21 22 20 17 17 15 15
6 4 3 6 12 9 15 12 5 3 1 11 3 8 15 14 14 22 34 49 44 36 31 29 28 28 27 28 29 34 42 51 54 50 46 35 26 21 22 16 16 15 10 7
11 8 13 7 12 15 11 15 11 13 8 7 4 12 10 5 10 37 64 56 45 38 39 36 31 32 33 32 32 35 39 44 42 43 42 35 28 29 28 24 19 16 13 10
14 7 3 2 3 19 11 8 9 14 6 7 8 8 9 6 10 34 52 56 49 48 44 40 39 38 39 40 40 41 46 49 46 46 44 40 35 31 27 24 18 12 11 10
12 10 4 1 4 3 12 16 5 5 10 7 8 7 10 15 25 19 32 52 58 52 46 46 45 46 46 47 49 48 49 52 51 47 43 40 34 28 23 19 14 10 9 11
6 9 3 5 10 18 6 6 4 10 9 11 4 12 13 34 33 36 43 64 63 57 54 52 51 49 50 51 50 50 49 49 47 43 39 35 31 24 19 12 10 9 13 17
6 10 7 11 3 4 1 13 11 10 11 2 6 11 5 11 35 50 51 64 65 60 59 56 56 55 54 53 51 49 48 47 44 40 36 30 25 20 13 9 8 11 17 24
14 4 7 7 5 3 9 8 9 10 7 13 11 11 2 3 27 47 56 67 70 66 63 61 62 61 57 55 54 51 49 46 42 37 31 26 20 14 8 5 10 18 25 31
18 9 14 16 13 13 15 16 13 12 7 9 13 8 9 13 23 38 53 72 76 72 71 68 65 62 60 60 59 55 51 44 40 34 27 21 15 8 3 10 18 25 28 30
11 13 11 3 7 9 16 17 18 15 37 18 33 18 12 21 26 58 68 75 81 81 78 75 72 69 68 65 61 57 51 45 39 32 25 17 9 3 9 15 20 24 28 32
3 3 5 3 5 4 6 17 22 39 25 18 4 13 15 39 40 47 66 74 77 87 87 83 78 77 76 71 67 60 53 46 38 30 21 13 4 5 13 18 21 25 31 36
19 11 7 7 1 7 5 24 24 21 15 37 28 44 13 10 35 55 63 83 95 97 96 93 90 87 81 75 69 63 55 47 38 28 19 10 5 10 16 20 25 29 35 41
18 27 5 19 7 7 18 17 21 30 24 36 23 10 23 27 57 77 88 94 92 88 93 97 96 91 82 76 70 63 55 46 36 27 18 10 8 13 17 21 28 35 39 43
5 11 7 12 13 12 17 17 20 20 40 18 36 35 22 29 30 48 84 92 92 94 97 101 100 95 86 80 73 65 56 45 36 26 17 11 10 12 16 23 30 35 39 43
8 6 7 6 11 21 14 15 19 16 35 28 46 23 23 33 13 25 80 95 92 87 88 94 101 95 86 81 74 66 56 45 34 24 16 11 11 14 19 24 29 34 39 42
8 4 22 9 8 18 12 11 35 18 22 33 58 61 56 24 55 59 40 76 86 85 86 88 91 93 88 82 74 64 54 44 32 22 16 12 13 16 20 23 28 33 38 42
22 20 11 6 4 31 18 10 31 12 5 8 16 33 44 65 47 39 33 56 80 87 85 84 88 91 87 82 74 64 54 42 31 21 18 16 16 17 20 22 26 32 37 41
12 12 15 22 17 3 22 4 14 7 4 2 7 7 17 40 43 35 40 60 74 82 84 84 86 91 90 81 72 62 50 39 28 26 23 20 18 18 21 25 28 32 37 43
5 1 6 7 3 6 17 7 13 5 3 6 9 10 12 19 31 37 45 60 72 80 84 85 86 93 91 80 68 53 44 36 33 31 26 21 19 20 23 27 30 33 36 40
2 5 7 6 7 8 11 24 21 5 12 16 16 16 19 20 29 40 50 63 73 77 81 82 89 93 87 78 65 54 44 39 35 33 27 23 21 22 25 28 31 33 35 40
11 9 5 4 2 10 10 19 14 13 24 23 22 21 21 26 30 38 51 59 67 75 79 83 86 85 77 64 57 49 42 40 38 33 29 27 25 25 27 31 31 33 34 36
Wind_Direction_850mb
203 165 194 181 148 193 148 200 169 308 183 133 192 185 211 197 201 182 181 170 178 192 191 197 198 201 201 206 216 220 219 224 234 239 244 222 225 230 236 242 250 262 271 274
203 216 179 166 186 220 173 195 165 5 43 126 178 229 220 195 209 187 174 185 186 180 182 195 204 205 203 207 205 208 224 231 237 242 248 231 228 233 242 249 254 258 267 274
202 215 180 189 186 204 187 184 187 161 144 1 109 312 218 208 181 180 168 166 177 188 193 206 213 214 214 215 215 210 213 223 236 241 233 225 224 234 242 248 253 258 265 268
220 233 186 175 209 168 214 174 146 136 122 199 148 252 246 198 187 197 191 186 180 193 202 210 217 217 218 217 216 215 214 222 216 218 223 226 220 229 236 243 249 254 263 272
203 173 185 178 189 165 193 134 144 132 121 113 188 110 255 139 195 218 206 201 189 193 203 208 216 221 222 218 215 212 210 215 213 203 210 217 210 213 217 219 222 220 228 244
176 182 147 186 89 151 137 91 55 63 77 282 216 167 257 189 203 165 190 182 177 181 194 201 194 190 192 194 193 199 202 201 208 202 190 194 190 169 185 188 199 206 220 231
106 36 300 172 87 5 116 106 61 43 307 218 0 184 242 223 215 182 174 169 166 184 183 180 174 168 163 168 169 174 187 192 201 207 205 210 206 212 197 171 138 136 139 122
148 195 188 195 169 171 175 152 151 170 188 223 333 224 247 292 260 192 178 172 175 179 176 170 167 163 156 154 156 157 161 169 182 192 198 200 179 152 142 133 128 125 113 92
158 164 144 71 44 153 217 181 165 101 33 74 213 282 308 72 106 144 160 167 170 170 174 169 164 160 154 150 146 149 148 146 149 151 152 149 145 141 134 128 123 113 88 60
182 116 19 312 110 8 172 156 102 15 134 237 274 251 224 197 191 169 165 168 168 172 172 167 164 160 154 152 147 147 144 142 142 144 146 143 139 136 128 123 117 92 54 26
105 98 183 135 205 173 150 187 160 127 145 164 169 254 219 197 183 180 173 174 175 173 174 169 166 163 160 158 155 153 150 147 145 147 144 143 139 136 127 114 87 46 17 355
108 107 141 202 230 268 120 203 157 169 211 152 160 262 194 199 183 175 174 177 180 182 178 174 171 171 168 163 160 159 156 155 153 151 149 146 140 130 122 94 43 9 345 340
172 119 88 17 354 332 213 205 174 113 85 197 151 253 309 165 156 173 169 179 182 182 181 180 178 178 173 168 167 168 162 160 155 154 155 148 142 129 107 36 356 345 341 337
134 140 164 185 194 144 192 194 187 143 129 179 224 209 221 177 171 171 176 181 184 186 188 186 185 182 179 178 175 172 166 165 161 160 158 153 147 140 54 355 344 336 331 330
127 192 173 75 130 150 193 182 168 193 219 189 234 199 216 199 186 188 184 181 184 189 193 193 190 187 185 181 177 176 175 171 170 169 165 163 156 70 357 342 330 328 329 329
74 175 117 115 10 130 133 197 199 211 220 245 213 265 199 209 193 176 183 179 184 193 199 199 196 193 190 187 183 180 179 176 174 174 173 169 150 336 326 326 326 328 330 330
154 146 103 251 9 90 336 214 193 222 218 217 227 239 151 179 184 185 184 189 196 200 201 203 202 199 195 192 189 185 181 179 178 180 181 185 248 302 320 329 330 328 326 326
179 193 160 232 26 227 243 158 187 204 215 224 244 263 183 203 210 205 210 206 203 204 207 208 206 202 199 194 190 186 183 182 182 187 196 222 279 311 323 327 325 325 328 330
41 134 147 161 191 285 261 221 184 171 247 194 227 233 208 221 211 217 216 218 219 221 219 215 211 206 199 194 191 188 184 186 189 196 212 239 277 305 317 319 323 328 330 331
58 44 127 145 168 213 282 175 169 91 258 206 218 222 187 161 197 234 221 221 219 219 216 214 212 204 199 194 191 189 189 189 195 206 225 252 276 296 315 324 329 328 329 330
132 111 201 167 220 276 223 144 143 156 250 189 209 216 199 194 221 246 234 223 223 219 214 213 209 203 198 193 190 189 191 195 202 213 227 249 278 303 313 318 324 328 329 331
177 172 191 136 181 256 151 104 176 213 210 185 222 236 216 218 229 232 218 215 215 213 209 211 203 200 195 193 191 191 196 200 207 217 230 245 263 282 296 310 317 322 325 327
201 195 193 192 225 78 192 46 190 174 155 230 247 235 224 218 223 218 209 202 206 209 205 202 201 195 192 191 192 195 199 203 208 218 220 231 255 278 292 298 308 314 320 324
289 285 145 81 311 296 218 202 213 160 116 345 310 281 241 239 226 221 207 201 199 201 201 199 197 192 189 190 191 196 204 209 214 214 218 231 252 273 285 293 303 311 316 322
199 119 149 284 254 254 234 246 241 294 267 288 301 274 251 239 231 223 210 205 204 202 198 197 195 193 192 191 194 197 206 212 214 217 222 234 251 267 280 291 302 309 318 324
188 169 175 215 198 88 344 6 6 302 293 289 276 265 255 247 252 227 215 211 207 203 200 197 195 194 193 195 198 205 215 217 217 222 229 238 253 269 283 290 298 307 312 315